Weather History for Lake Hood, AK

Change the Weather History Date:

Thursday, October 4, 2012

  Actual Average Record
Temperature  
Mean Temperature 52 °F -  
Max Temperature 61 °F 45 °F 61 °F (2012)
Min Temperature 44 °F 33 °F 32 °F (1996)
Degree Days  
Heating Degree Days 13    
Growing Degree Days 2 (Base 50)    
Moisture  
Dew Point 42 °F    
Average Humidity 79    
Maximum Humidity 93    
Minimum Humidity 53    
Precipitation  
Precipitation 0.00 in - - ()
Sea Level Pressure  
Sea Level Pressure 30.03 in    
Wind  
Wind Speed 7 mph (WNW)    
Max Wind Speed 12 mph    
Max Gust Speed 24 mph    
Visibility 10 miles    
Events      
Averages and records for this station are not official NWS values.
T = Trace of Precipitation, MM = Missing Value Source: NWS Daily Summary

Daily Weather History Graph

Daily Weather History Graph

Search for Another Location

Airport:

Trip Planner

Search our weather history database for the weather conditions in past years. The results will help you decide how hot, cold, wet, or windy it might be!

Date:

Astronomy

Oct. 04, 2012 Rise Set
Actual Time 8:15 AM AKDT 7:19 PM AKDT
Civil Twilight 7:32 AM AKDT 8:02 PM AKDT
Nautical Twilight 6:42 AM AKDT 8:52 PM AKDT
Astronomical Twilight 5:49 AM AKDT 9:44 PM AKDT
Moon 8:38 PM AKDT (10/4) 2:05 PM AKDT (10/4)
Length of Visible Light 12h 30m
Length of Day
11h 04m
Waning Gibbous, 81% of the Moon is Illuminated
Oct 4
Waning Gibbous
Oct 7
Last Quarter
Oct 15
New
Oct 21
First Quarter
Oct 29
Full

Hourly Weather History & Observations

Time (AKDT) Temp. Windchill Dew Point Humidity Pressure Visibility Wind Dir Wind Speed Gust Speed Precip Events Conditions
12:24 AM 44.6 °F 41.4 °F 42.8 °F 93% 30.05 in 10.0 mi Variable 5.8 mph - N/A   Overcast
12:53 AM 45.0 °F 41.8 °F 41.0 °F 86% 30.05 in 10.0 mi NNW 5.8 mph - N/A   Mostly Cloudy
1:53 AM 44.1 °F 40.8 °F 41.0 °F 89% 30.05 in 10.0 mi NW 5.8 mph - N/A   Scattered Clouds
2:53 AM 44.1 °F 39.5 °F 41.0 °F 89% 30.02 in 10.0 mi NNW 8.1 mph - N/A   Mostly Cloudy
3:53 AM 44.1 °F 40.1 °F 41.0 °F 89% 30.02 in 10.0 mi North 6.9 mph - N/A   Overcast
4:53 AM 44.1 °F 41.5 °F 41.0 °F 89% 30.01 in 10.0 mi North 4.6 mph - N/A   Scattered Clouds
5:53 AM 44.1 °F 39.5 °F 41.0 °F 89% 30.00 in 10.0 mi NW 8.1 mph - N/A   Clear
6:53 AM 44.1 °F 38.6 °F 39.9 °F 85% 29.99 in 10.0 mi NNW 10.4 mph - N/A   Clear
7:53 AM 44.1 °F 40.1 °F 41.0 °F 89% 29.99 in 10.0 mi NW 6.9 mph - N/A   Scattered Clouds
8:53 AM 44.1 °F 42.5 °F 41.0 °F 89% 30.02 in 10.0 mi Variable 3.5 mph - N/A   Clear
9:53 AM 45.0 °F - 41.0 °F 86% 29.98 in 10.0 mi Calm Calm - N/A   Overcast
10:53 AM 46.0 °F 41.4 °F 41.0 °F 83% 29.99 in 10.0 mi NW 9.2 mph - N/A   Overcast
11:53 AM 46.0 °F 41.0 °F 42.1 °F 86% 30.00 in 10.0 mi NW 10.4 mph - N/A   Overcast
12:53 PM 48.0 °F - 43.0 °F 83% 30.01 in 10.0 mi WNW 8.1 mph - N/A   Overcast
1:53 PM 48.9 °F - 44.1 °F 83% 30.00 in 10.0 mi NNW 4.6 mph - N/A   Overcast
2:53 PM 50.0 °F - 45.0 °F 83% 30.01 in 10.0 mi NNW 4.6 mph - N/A   Overcast
3:53 PM 51.1 °F - 46.0 °F 83% 30.01 in 10.0 mi Calm Calm - N/A   Overcast
4:53 PM 54.0 °F - 46.0 °F 75% 30.01 in 10.0 mi Calm Calm - N/A   Overcast
5:53 PM 60.1 °F - 43.0 °F 53% 30.02 in 10.0 mi SSE 9.2 mph 20.7 mph N/A   Overcast
6:53 PM 59.0 °F - 43.0 °F 55% 30.04 in 10.0 mi South 6.9 mph 17.3 mph N/A   Overcast
7:53 PM 59.0 °F - 42.1 °F 53% 30.04 in 10.0 mi South 9.2 mph 17.3 mph N/A   Clear
8:53 PM 57.9 °F - 42.1 °F 56% 30.07 in 10.0 mi South 11.5 mph 20.7 mph N/A   Clear
9:53 PM 57.9 °F - 42.1 °F 56% 30.09 in 10.0 mi South 10.4 mph 20.7 mph N/A   Clear
10:53 PM 55.0 °F - 44.1 °F 67% 30.13 in 10.0 mi SW 11.5 mph 24.2 mph N/A   Scattered Clouds
11:53 PM 53.1 °F - 45.0 °F 74% 30.15 in 10.0 mi WSW 11.5 mph 23.0 mph N/A   Clear